Regional Weather Roundup
Issued by NWS

Home | Current Version | Previous Version | Text Only | Print | Product List | Glossary Off
Versions: 1 2 3 4 5 6 7 8 9 10 11 12 13 14 15 16 17 18 19 20 21 22 23 24 25 26 27 28 29 30 31 32 33 34 35 36 37 38 39 40 41 42 43 44 45 46 47 48 49 50

157
ASUS45 KCYS 062010
RWRWY

WYOMING REGIONAL WEATHER ROUNDUP
NATIONAL WEATHER SERVICE CHEYENNE WY
100 PM MST SAT FEB 06 2016

NOTE:  "FAIR" INDICATES FEW OR NO CLOUDS BELOW 12,000 FEET
WITH NO SIGNIFICANT WEATHER AND/OR OBSTRUCTIONS TO VISIBILITY.

WYZ001-062100-
YELLOWSTONE NATIONAL PARK

CITY           SKY/WX    TMP DP  RH WIND       PRES   REMARKS
LK YELLOWSTONE   N/A     24  16  71 W9        30.25R WCI  14
W YELLOWSTONE  NOT AVBL

$$
WYZ002>013-054>058-071-098>099-062100-
NORTHERN WYOMING

CITY           SKY/WX    TMP DP  RH WIND       PRES   REMARKS
JACKSON        MOSUNNY   32  25  74 S18G28    30.28F WCI  20
CODY           FAIR      50  12  22 W15G35    30.00F
GREYBULL       FAIR      38  20  48 SE8       30.04F WCI  32
WORLAND        FAIR      42  24  49 S5        30.03F
SHERIDAN       PTSUNNY   52  14  22 N9        29.88S
BUFFALO        FAIR      50  16  25 NW21G26   29.91S
GILLETTE       FAIR      41  24  51 SW22      29.89S
HULETT         FAIR      43  25  49 SW14      29.89F
NEWCASTLE      FAIR      41  21  45 SE8       29.96F

$$
WYZ014>020-022>026-101>103-062100-
CENTRAL WYOMING

CITY           SKY/WX    TMP DP  RH WIND       PRES   REMARKS
BIG PINEY      FAIR      30  17  58 SE5       30.31F WCI  25
PINEDALE       FAIR      32  18  55 W9        30.30F WCI  24
DUBOIS         FAIR      37  16  41 NW21G35   30.12S WCI  27
LANDER         FAIR      39  17  41 CALM      30.09F
RIVERTON       FAIR      36  21  54 S7        30.10F WCI  30
CASPER         FAIR      30  21  69 SW36      30.08F WCI  14
DOUGLAS        FAIR      42  23  46 W16G25      N/A

$$
WYZ021-027>030-104>119-062100-
SOUTHERN WYOMING

CITY           SKY/WX    TMP DP  RH WIND       PRES   REMARKS
EVANSTON       FAIR      28  18  66 SW18      30.39F WCI  15
KEMMERER       FAIR      27  19  74 W15       30.36  WCI  15
FORT BRIDGER   CLEAR     36  21  55 W20       30.40F WCI  25
ROCK SPRINGS   FAIR      30  16  56 SW31G39   30.33F WCI  15
DIXON          FAIR      25  14  63 NW6       30.42F WCI  18
RAWLINS        MIX PCPN  27  18  69 SW32G45   30.24F WCI  10
SARATOGA       FAIR      34  18  51 SW15G31   30.30S WCI  24
LARAMIE        FAIR      35  20  54 SW24G32   30.15F WCI  23
CHEYENNE       FAIR      38  20  48 W29G38    30.09F WCI  26
TORRINGTON     FAIR      40  23  50 W17G28    30.04F WCI  31
PINE BLUFFS    FAIR      39  23  52 W15G31    30.10F WCI  31

$$




USA.gov is the U.S. government's official web portal to all federal, state and local government web resources and services.